Location: Melbourne
(37.8170°S, 144.9670°E)
Time: 03:13:24
(UTC+11:00)

Vanguard 1 Rocket - Visible Passes

Search period start: 13 February 2016 00:00
Search period end: 23 February 2016 00:00
Orbit: 650 x 4227 km, 34.3° (Epoch: 11 February)

Date Brightness Start Highest point End Pass type
(mag) Time Alt. Az. Time Alt. Az. Time Alt. Az.
17 Feb 11.6 05:26:00 10° NNE 05:36:29 15° NE 05:48:05 10° E visible
19 Feb 11.4 05:24:53 10° NNE 05:38:16 21° NE 05:54:04 10° E visible
21 Feb 11.2 05:25:12 10° N 05:40:00 26° NE 05:58:34 10° E visible
22 Feb 11.3 04:19:47 10° NNE 04:27:57 14° ENE 04:37:28 10° E visible
